EW1653 Weather Reports


time (UTC)temp
C
wind
direction
speed
KPH
gust
KPH
rain 1hr
cm
rain 24hr
cm
rain mn
cm
humidity
%
barometer
mb
20221207224001 16 277 1.6 8.0 0.00 0.00 0.00 95 1020.4
20221207223600 16 249 3.2 8.0 0.00 0.00 0.00 95 1020.3
20221207223100 16 266 0.0 9.7 0.00 0.00 0.00 95 1020.1
20221207222600 16 271 3.2 14.5 0.00 0.00 0.00 95 1020.1
20221207222100 16 240 8.0 16.1 0.00 0.00 0.00 95 1020.0
20221207221559 16 229 9.7 16.1 0.00 0.00 0.00 95 1019.9
20221207221100 16 234 6.4 16.1 0.00 0.00 0.00 95 1020.3
20221207220559 16 254 6.4 16.1 0.00 0.00 0.00 95 1020.5
20221207220059 16 259 4.8 11.3 0.00 0.00 0.00 95 1020.1
20221207215559 16 271 6.4 17.7 0.00 0.00 0.00 95 1020.1
20221207215100 16 224 3.2 11.3 0.00 0.00 0.00 95 1020.1
20221207214602 16 268 3.2 14.5 0.00 0.00 0.00 95 1020.3
20221207214058 16 229 9.7 14.5 0.00 0.00 0.00 94 1019.9
20221207213558 16 240 8.0 12.9 0.00 0.00 0.00 94 1020.2
20221207213058 16 231 6.4 12.9 0.00 0.00 0.00 94 1020.5
20221207212558 16 247 9.7 12.9 0.00 0.00 0.00 94 1020.6
20221207212058 16 286 3.2 12.9 0.00 0.00 0.00 94 1020.7
20221207211558 16 266 4.8 9.7 0.00 0.00 0.00 94 1020.7
20221207211101 16 283 1.6 11.3 0.00 0.00 0.00 94 1020.4
20221207210601 16 277 3.2 14.5 0.00 0.00 0.00 94 1020.4
20221207210057 16 263 4.8 14.5 0.00 0.00 0.00 94 1020.5
20221207205556 16 309 6.4 12.9 0.00 0.00 0.00 94 1020.5
20221207205056 16 257 6.4 12.9 0.00 0.00 0.00 94 1020.5
20221207204558 16 269 6.4 12.9 0.00 0.00 0.00 94 1020.4
20221207204057 16 269 3.2 14.5 0.00 0.00 0.00 94 1020.3
20221207203555 16 225 8.0 19.3 0.00 0.00 0.00 94 1020.2
20221207203100 16 247 11.3 19.3 0.00 0.00 0.00 94 1020.3
20221207202556 16 250 0.0 14.5 0.00 0.00 0.00 94 1020.2
20221207202056 16 283 8.0 20.9 0.00 0.00 0.00 94 1019.9
20221207201557 16 237 9.7 20.9 0.00 0.00 0.00 94 1019.9
20221207201054 16 235 6.4 12.9 0.00 0.00 0.00 94 1020.0
20221207200554 16 231 3.2 11.3 0.00 0.00 0.00 94 1020.0
20221207200054 16 246 6.4 12.9 0.00 0.00 0.00 94 1019.8
20221207195553 16 318 4.8 17.7 0.00 0.00 0.00 94 1019.9
20221207195058 16 256 9.7 19.3 0.00 0.00 0.00 94 1019.4
20221207194553 16 229 9.7 19.3 0.00 0.00 0.00 94 1019.4
20221207194053 16 232 9.7 20.9 0.00 0.00 0.00 94 1019.5
20221207193551 16 239 12.9 20.9 0.00 0.00 0.00 94 1019.5
20221207193052 16 243 9.7 16.1 0.00 0.00 0.00 94 1019.7
20221207192550 16 230 8.0 19.3 0.00 0.00 0.00 94 1019.8
20221207192050 16 245 9.7 20.9 0.00 0.00 0.00 94 1019.9
20221207191550 16 231 12.9 22.5 0.00 0.00 0.00 94 1019.8
20221207191048 16 248 11.3 25.7 0.00 0.00 0.00 95 1020.0
20221207190550 16 229 14.5 25.7 0.00 0.00 0.00 95 1020.1
20221207190119 16 259 14.5 25.7 0.00 0.00 0.00 94 1020.1
20221207185546 16 233 12.9 19.3 0.00 0.00 0.00 95 1020.2
20221207185050 16 229 12.9 19.3 0.00 0.00 0.00 95 1020.2
20221207184545 16 237 9.7 24.1 0.00 0.00 0.00 95 1020.3
20221207184045 16 242 12.9 24.1 0.00 0.00 0.00 95 1020.3
20221207183544 16 233 12.9 24.1 0.00 0.00 0.00 95 1020.3
20221207183044 16 230 12.9 29.0 0.00 0.00 0.00 95 1020.3
20221207182543 16 260 17.7 29.0 0.00 0.00 0.00 95 1020.4
20221207182042 16 274 14.5 22.5 0.00 0.00 0.00 95 1020.5
20221207181542 16 235 11.3 22.5 0.00 0.00 0.00 95 1020.6
20221207181042 16 228 12.9 22.5 0.00 0.00 0.00 95 1020.4
20221207180540 16 203 11.3 16.1 0.00 0.00 0.00 95 1020.6
20221207180040 16 248 6.4 16.1 0.00 0.00 0.00 95 1020.7
20221207175539 16 238 11.3 22.5 0.00 0.00 0.00 95 1020.8
20221207175039 16 262 11.3 22.5 0.00 0.00 0.00 95 1020.8
20221207174540 16 231 12.9 17.7 0.00 0.00 0.00 95 1020.7
20221207174038 16 231 12.9 19.3 0.00 0.00 0.00 95 1020.9
20221207173537 16 237 11.3 19.3 0.00 0.00 0.00 95 1021.0
20221207173037 16 256 9.7 16.1 0.00 0.00 0.00 95 1021.0
20221207172536 16 240 11.3 14.5 0.00 0.00 0.00 96 1021.1
20221207172035 16 245 8.0 14.5 0.00 0.00 0.00 96 1021.1
20221207171544 16 233 9.7 14.5 0.00 0.00 0.00 96 1021.2
20221207171034 16 242 6.4 14.5 0.00 0.00 0.00 96 1021.4
20221207170537 16 242 8.0 14.5 0.00 0.00 0.00 96 1021.5
20221207170031 16 227 6.4 12.9 0.00 0.00 0.00 96 1021.6
20221207165531 16 243 6.4 12.9 0.00 0.00 0.00 96 1021.7
20221207165029 16 250 6.4 14.5 0.00 0.00 0.00 96 1021.7
20221207164530 16 245 9.7 17.7 0.00 0.00 0.00 96 1021.8
20221207164029 16 243 9.7 17.7 0.00 0.00 0.00 96 1021.8
20221207163528 16 229 6.4 16.1 0.00 0.00 0.00 96 1021.8
20221207163028 16 275 8.0 19.3 0.00 0.00 0.00 96 1021.9
20221207162527 16 252 11.3 19.3 0.00 0.00 0.00 96 1022.0
20221207162027 16 247 8.0 20.9 0.00 0.00 0.00 96 1022.0
20221207161526 16 235 12.9 22.5 0.00 0.00 0.00 96 1022.1
20221207161027 16 236 14.5 22.5 0.00 0.00 0.00 96 1022.4
20221207160526 16 261 14.5 17.7 0.00 0.00 0.00 96 1022.4
20221207160023 16 232 11.3 19.3 0.00 0.00 0.00 96 1022.2
20221207155522 16 236 9.7 19.3 0.00 0.00 0.00 96 1022.4
20221207155022 16 238 11.3 17.7 0.00 0.00 0.00 96 1022.5
20221207154624 16 236 12.9 17.7 0.00 0.00 0.00 97 1022.5
20221207154024 16 217 9.7 17.7 0.00 0.00 0.00 97 1022.4
20221207153521 16 226 11.3 16.1 0.00 0.00 0.00 97 1022.5
20221207153025 16 226 6.4 16.1 0.00 0.00 0.00 97 1022.6
20221207152521 16 228 8.0 17.7 0.00 0.00 0.00 97 1022.7
20221207152023 16 230 11.3 19.3 0.00 0.00 0.00 97 1022.5
20221207151519 16 224 8.0 19.3 0.00 0.00 0.00 97 1022.6
20221207151021 16 226 9.7 17.7 0.00 0.00 0.00 97 1022.5
20221207150518 16 221 9.7 17.7 0.00 0.00 0.00 97 1022.6
20221207150022 16 217 11.3 19.3 0.00 0.00 0.00 97 1022.5
20221207145525 16 225 11.3 19.3 0.00 0.00 0.00 97 1022.6
20221207145019 16 243 11.3 17.7 0.00 0.00 0.00 97 1022.6
20221207144522 16 219 9.7 14.5 0.00 0.00 0.00 97 1022.6
20221207144019 16 219 8.0 16.1 0.00 0.00 0.00 97 1022.5
20221207143515 16 229 9.7 14.5 0.00 0.00 0.00 97 1022.6
20221207143017 15 210 9.7 12.9 0.00 0.00 0.00 97 1022.5
20221207142514 15 186 8.0 11.3 0.00 0.00 0.00 97 1022.4
20221207142014 15 210 6.4 11.3 0.00 0.00 0.00 97 1022.6
20221207141518 15 210 6.4 12.9 0.00 0.00 0.00 97 1022.7
20221207141012 15 219 6.4 12.9 0.00 0.00 0.00 97 1022.7
20221207140513 15 226 6.4 11.3 0.00 0.00 0.00 97 1022.9
20221207140013 15 221 6.4 11.3 0.00 0.00 0.00 97 1022.9
20221207135511 15 229 6.4 9.7 0.00 0.00 0.00 97 1022.9
20221207135009 15 225 6.4 9.7 0.00 0.00 0.00 97 1023.0
20221207134521 15 221 4.8 9.7 0.00 0.00 0.00 97 1022.9
20221207134009 15 200 4.8 9.7 0.00 0.00 0.00 97 1022.9
20221207133510 15 219 4.8 9.7 0.00 0.00 0.00 97 1023.0
20221207133008 15 215 6.4 9.7 0.00 0.00 0.00 97 1023.0
20221207132508 15 219 4.8 8.0 0.00 0.00 0.00 97 1023.0
20221207132006 15 199 4.8 9.7 0.00 0.00 0.00 97 1023.0
20221207131508 15 204 3.2 9.7 0.00 0.00 0.00 97 1023.0
20221207131006 15 196 3.2 9.7 0.00 0.00 0.00 97 1023.1
20221207130508 15 224 3.2 8.0 0.00 0.00 0.00 97 1023.1
20221207130006 14 213 3.2 8.0 0.00 0.00 0.00 97 1023.0
20221207125505 14 233 4.8 8.0 0.00 0.00 0.00 97 1023.1
20221207125010 14 208 4.8 8.0 0.00 0.00 0.00 97 1023.0
20221207124510 14 208 4.8 8.0 0.00 0.00 0.00 97 1022.8
20221207124006 14 176 3.2 6.4 0.00 0.00 0.00 97 1022.8
20221207123504 14 219 3.2 6.4 0.00 0.00 0.00 97 1022.8
20221207123004 14 206 3.2 6.4 0.00 0.00 0.00 97 1022.9
20221207122505 14 212 3.2 6.4 0.00 0.00 0.00 97 1022.8
20221207122004 14 193 3.2 6.4 0.00 0.00 0.00 97 1022.7
20221207121504 14 168 3.2 4.8 0.00 0.00 0.00 97 1022.7
20221207121004 14 182 3.2 4.8 0.00 0.00 0.00 97 1022.6
20221207120504 14 198 3.2 4.8 0.00 0.00 0.00 97 1022.6
20221207120002 14 214 1.6 4.8 0.00 0.00 0.00 97 1022.7
20221207115505 14 186 3.2 4.8 0.00 0.00 0.00 97 1022.6
20221207115003 14 165 1.6 4.8 0.00 0.00 0.00 97 1022.6
20221207114503 14 196 1.6 4.8 0.00 0.00 0.00 97 1022.7
20221207114002 14 219 3.2 4.8 0.00 0.00 0.00 97 1022.8
20221207113504 14 213 1.6 4.8 0.00 0.00 0.00 97 1022.7
20221207113002 14 205 1.6 4.8 0.00 0.00 0.00 97 1022.6
20221207112502 14 180 1.6 6.4 0.00 0.00 0.00 97 1022.6
20221207112001 14 201 1.6 6.4 0.00 0.00 0.00 97 1022.6
20221207111501 14 210 3.2 6.4 0.00 0.00 0.00 97 1022.5
20221207111002 14 190 3.2 6.4 0.00 0.00 0.00 97 1022.5
20221207110501 14 206 3.2 6.4 0.00 0.00 0.00 97 1022.6
20221207110101 14 207 4.8 6.4 0.00 0.00 0.00 97 1022.5
20221207105601 14 203 3.2 9.7 0.00 0.00 0.00 97 1022.5
20221207105100 14 212 4.8 11.3 0.00 0.00 0.00 97 1022.5
20221207104607 14 157 3.2 9.7 0.00 0.00 0.00 97 1022.4
20221207104500 14 181 3.2 9.7 0.00 0.00 0.00 97 1022.4
20221207104101 14 178 3.2 12.9 0.00 0.00 0.00 97 1022.4
20221207103600 14 179 4.8 12.9 0.00 0.00 0.00 97 1022.4
20221207103059 14 162 4.8 14.5 0.00 0.00 0.00 97 1022.4
20221207102558 14 203 8.0 14.5 0.00 0.00 0.00 97 1022.4
20221207102100 14 182 8.0 16.1 0.00 0.00 0.00 97 1022.5
20221207101601 14 171 11.3 16.1 0.00 0.00 0.00 97 1022.5
20221207101055 14 184 9.7 16.1 0.00 0.00 0.00 96 1022.6
20221207100557 14 178 6.4 11.3 0.00 0.00 0.00 96 1022.6
20221207100055 14 193 4.8 12.9 0.00 0.00 0.00 96 1022.7
20221207095554 14 190 6.4 12.9 0.00 0.00 0.00 96 1022.8
20221207095054 14 190 4.8 11.3 0.00 0.00 0.00 96 1022.9
20221207094554 14 210 8.0 11.3 0.00 0.00 0.00 96 1022.9
20221207094054 14 185 6.4 9.7 0.00 0.00 0.00 96 1022.8
20221207093555 14 190 4.8 9.7 0.00 0.00 0.00 96 1022.7
20221207093101 14 193 4.8 12.9 0.00 0.00 0.00 96 1022.7
20221207092553 14 171 4.8 12.9 0.00 0.00 0.00 96 1022.7
20221207092053 14 172 4.8 9.7 0.00 0.00 0.00 96 1022.7
20221207091554 15 201 6.4 11.3 0.00 0.00 0.00 96 1022.8
20221207091052 14 191 4.8 11.3 0.00 0.00 0.00 96 1022.8
20221207090552 15 203 6.4 11.3 0.00 0.00 0.00 96 1022.8
20221207090051 15 177 6.4 12.9 0.00 0.00 0.00 96 1022.8
20221207085551 15 191 8.0 12.9 0.00 0.00 0.00 96 1022.8
20221207085053 15 176 4.8 9.7 0.00 0.00 0.00 96 1022.9
20221207084603 15 165 3.2 9.7 0.00 0.00 0.00 96 1022.8
20221207084052 15 195 6.4 9.7 0.00 0.00 0.00 96 1022.9
20221207083550 15 176 4.8 11.3 0.00 0.00 0.00 96 1023.0
20221207083049 15 195 4.8 11.3 0.00 0.00 0.00 96 1023.0
20221207082549 15 207 4.8 9.7 0.00 0.00 0.00 96 1023.0
20221207082048 15 193 4.8 11.3 0.00 0.00 0.00 96 1023.0
20221207081608 15 184 6.4 12.9 0.00 0.00 0.00 96 1023.0
20221207081049 15 205 6.4 12.9 0.00 0.00 0.00 96 1023.0
20221207080548 15 198 6.4 11.3 0.00 0.00 0.00 96 1022.9
20221207080047 15 180 6.4 11.3 0.00 0.00 0.00 96 1023.0
20221207075547 15 198 6.4 9.7 0.00 0.00 0.00 96 1023.1
20221207075051 15 184 6.4 9.7 0.00 0.00 0.00 96 1023.1
20221207074546 14 189 6.4 11.3 0.00 0.00 0.00 96 1023.2
20221207074045 14 187 6.4 11.3 0.00 0.00 0.00 96 1023.3
20221207073545 14 186 6.4 9.7 0.00 0.00 0.00 96 1023.3
20221207073047 14 183 6.4 11.3 0.00 0.00 0.00 96 1023.3
20221207072549 14 184 4.8 9.7 0.00 0.00 0.00 96 1023.3
20221207072045 14 200 4.8 12.9 0.00 0.00 0.00 96 1023.3
20221207071545 14 211 6.4 12.9 0.00 0.00 0.00 96 1023.3
20221207071044 14 222 6.4 11.3 0.00 0.00 0.00 96 1023.3
20221207070544 14 217 4.8 11.3 0.00 0.00 0.00 96 1023.3
20221207070043 14 198 6.4 16.1 0.00 0.00 0.00 96 1023.3
20221207065544 14 207 9.7 16.1 0.00 0.00 0.00 96 1023.2
20221207065042 14 214 9.7 12.9 0.00 0.00 0.00 96 1023.3
20221207064553 14 172 8.0 12.9 0.00 0.00 0.00 96 1023.3
20221207064042 15 198 8.0 11.3 0.00 0.00 0.00 95 1023.2
20221207063544 15 221 8.0 12.9 0.00 0.00 0.00 95 1023.2
20221207063052 15 194 8.0 12.9 0.00 0.00 0.00 95 1023.2
20221207062541 15 185 6.4 12.9 0.00 0.00 0.00 95 1023.1
20221207062041 15 202 6.4 12.9 0.00 0.00 0.00 95 1023.2
20221207061540 15 200 6.4 11.3 0.00 0.00 0.00 95 1023.2
20221207061040 15 198 8.0 11.3 0.00 0.00 0.00 95 1023.1
20221207060540 15 188 6.4 11.3 0.00 0.00 0.00 95 1023.2
20221207060043 15 184 6.4 12.9 0.00 0.00 0.00 95 1023.4
20221207055536 15 207 4.8 12.9 0.00 0.00 0.00 95 1023.4
20221207055039 15 213 6.4 9.7 0.00 0.00 0.00 95 1023.4
20221207054536 15 198 4.8 11.3 0.00 0.00 0.00 95 1023.3
20221207054036 15 229 4.8 12.9 0.00 0.00 0.00 95 1023.3
20221207053542 15 208 8.0 12.9 0.00 0.00 0.00 95 1023.4
20221207053040 15 219 4.8 12.9 0.00 0.00 0.00 95 1023.3
20221207052535 15 223 8.0 14.5 0.00 0.00 0.00 95 1023.3
20221207052034 15 210 6.4 14.5 0.00 0.00 0.00 95 1023.3
20221207051540 15 185 8.0 12.9 0.00 0.00 0.00 95 1023.2
20221207051036 15 219 9.7 16.1 0.00 0.00 0.00 95 1023.3
20221207050532 15 215 8.0 16.1 0.00 0.00 0.00 95 1023.2
20221207050031 15 221 11.3 17.7 0.00 0.00 0.00 95 1023.1
20221207045530 15 223 11.3 17.7 0.00 0.00 0.00 95 1023.2
20221207045030 15 244 9.7 17.7 0.00 0.00 0.00 95 1023.2
20221207044552 15 207 9.7 17.7 0.00 0.00 0.00 95 1023.2
20221207044031 15 173 9.7 14.5 0.00 0.00 0.00 95 1023.3
20221207043529 15 207 8.0 19.3 0.00 0.00 0.00 95 1023.4
20221207043038 15 210 11.3 19.3 0.00 0.00 0.00 95 1023.5
20221207042532 15 210 9.7 19.3 0.00 0.00 0.00 95 1023.5
20221207042029 15 229 9.7 16.1 0.00 0.00 0.00 95 1023.4
20221207041539 15 206 11.3 17.7 0.00 0.00 0.00 95 1023.3
20221207041028 15 182 11.3 19.3 0.00 0.00 0.00 95 1023.3
20221207040529 15 193 12.9 19.3 0.00 0.00 0.00 94 1023.3
20221207040028 15 217 11.3 17.7 0.00 0.00 0.00 95 1023.2
20221207035528 15 159 9.7 17.7 0.00 0.00 0.00 94 1023.1
20221207035027 15 200 9.7 17.7 0.00 0.00 0.00 94 1023.2
20221207034527 15 198 11.3 17.7 0.00 0.00 0.00 94 1023.2
20221207034030 15 174 8.0 19.3 0.00 0.00 0.00 94 1023.2
20221207033530 15 206 11.3 19.3 0.00 0.00 0.00 94 1023.4
20221207033027 14 198 12.9 19.3 0.00 0.00 0.00 94 1023.3
20221207032528 14 219 11.3 22.5 0.00 0.00 0.00 94 1023.4
20221207032027 14 220 9.7 22.5 0.00 0.00 0.00 94 1023.4
20221207031527 15 212 9.7 19.3 0.00 0.00 0.00 94 1023.4
20221207031029 15 206 9.7 19.3 0.00 0.00 0.00 94 1023.4
20221207030528 15 184 12.9 19.3 0.00 0.00 0.00 94 1023.4
20221207030025 15 173 12.9 19.3 0.00 0.00 0.00 94 1023.4
20221207025526 15 198 9.7 17.7 0.00 0.00 0.00 94 1023.5
20221207025025 15 172 11.3 16.1 0.00 0.00 0.00 93 1023.5
20221207024524 15 231 9.7 17.7 0.00 0.00 0.00 93 1023.5
20221207024028 15 214 9.7 17.7 0.00 0.00 0.00 93 1023.6
20221207023524 15 199 8.0 16.1 0.00 0.00 0.00 93 1023.7
20221207023025 15 193 9.7 17.7 0.00 0.00 0.00 93 1023.7
20221207022523 15 209 9.7 17.7 0.00 0.00 0.00 93 1023.7
20221207022023 15 198 9.7 16.1 0.00 0.00 0.00 93 1023.7
20221207021526 15 205 9.7 16.1 0.00 0.00 0.00 93 1023.8
20221207021022 15 203 11.3 17.7 0.00 0.00 0.00 93 1023.7
20221207020523 15 212 12.9 19.3 0.00 0.00 0.00 93 1023.6
20221207020021 15 192 14.5 19.3 0.00 0.00 0.00 94 1023.6
20221207015520 15 203 11.3 17.7 0.00 0.00 0.00 93 1023.5
20221207015018 15 208 11.3 17.7 0.00 0.00 0.00 93 1023.5
20221207014536 15 200 12.9 19.3 0.00 0.00 0.00 93 1023.5
20221207014017 15 193 11.3 19.3 0.00 0.00 0.00 93 1023.5
20221207013518 15 211 9.7 19.3 0.00 0.00 0.00 93 1023.5
20221207013017 15 204 12.9 19.3 0.00 0.00 0.00 93 1023.5
20221207012517 15 186 14.5 19.3 0.00 0.00 0.00 94 1023.4
20221207012019 15 189 9.7 19.3 0.00 0.00 0.00 93 1023.5
20221207011516 15 187 9.7 14.5 0.00 0.00 0.00 93 1023.6
20221207011116 15 179 9.7 12.9 0.00 0.00 0.00 93 1023.7
20221207010516 15 215 9.7 17.7 0.00 0.00 0.00 93 1023.8
20221207010015 15 205 8.0 17.7 0.00 0.00 0.00 93 1023.8
20221207005512 15 202 9.7 17.7 0.00 0.00 0.00 93 1023.7
20221207005011 15 202 8.0 17.7 0.00 0.00 0.00 93 1023.6
20221207004522 15 189 11.3 20.9 0.00 0.00 0.00 93 1023.6
20221207004008 15 209 11.3 20.9 0.00 0.00 0.00 93 1023.6
20221207003508 15 214 11.3 20.9 0.00 0.00 0.00 93 1023.6
20221207003013 15 191 12.9 20.9 0.00 0.00 0.00 93 1023.5
20221207002507 15 219 14.5 22.5 0.00 0.00 0.00 93 1023.6
20221207002007 15 238 12.9 20.9 0.00 0.00 0.00 93 1023.4
20221207001507 15 212 11.3 22.5 0.00 0.00 0.00 93 1023.6
20221207001011 15 218 12.9 24.1 0.00 0.00 0.00 93 1023.4
20221207000507 15 214 16.1 25.7 0.00 0.00 0.00 93 1023.4
20221207000006 15 191 12.9 25.7 0.00 0.00 0.00 93 1023.5
20221206235506 15 182 14.5 32.2 0.00 0.00 0.00 93 1023.6
20221206235006 15 221 12.9 32.2 0.00 0.00 0.00 93 1023.5
20221206234510 15 217 14.5 24.1 0.00 0.00 0.00 93 1023.6
20221206234005 15 224 12.9 19.3 0.00 0.00 0.00 93 1023.7
20221206233505 15 211 9.7 19.3 0.00 0.00 0.00 93 1023.6
20221206233005 15 203 11.3 19.3 0.00 0.00 0.00 93 1023.5
20221206232506 15 221 12.9 17.7 0.00 0.00 0.00 93 1023.6
20221206232004 15 178 9.7 17.7 0.00 0.00 0.00 93 1023.6
20221206231504 15 182 9.7 17.7 0.00 0.00 0.00 93 1023.6
20221206231004 15 214 12.9 19.3 0.00 0.00 0.00 92 1023.6
20221206230503 15 212 12.9 24.1 0.00 0.00 0.00 92 1023.6
20221206230003 15 212 16.1 24.1 0.00 0.00 0.00 92 1023.6
20221206225503 15 201 9.7 20.9 0.00 0.00 0.00 92 1023.5
20221206225004 15 214 11.3 22.5 0.00 0.00 0.00 92 1023.5
20221206224503 15 209 12.9 22.5 0.00 0.00 0.00 92 1023.6